Home > Weather > The Settlement > Past weeks

Flag for Christmas Island Past Weather in The Settlement, Christmas Island — Yesterday and Last 2 Weeks

Now
75 °F

Clear.


Feels Like: 74 °F
Forecast: 76 / 81 °F
Wind: No wind

Location: Christmas Island Aerodrome

Current Time: Jul 24, 2016 at 11:47:58 PM

Latest Report: Jul 24, 2016 at 9:00 PM


Visibility: N/A

Pressure: 29.92 "Hg

Humidity: 94%

Dew Point: 73 °F

Location of The SettlementLocation

Past Weather in The Settlement — Graph

°F

The Settlement Temperature Yesterday

Maximum temperature yesterday: 82 °F (at 1:30 PM)
Minimum temperature yesterday: 72 °F (at 8:00 AM)
Average temperature yesterday: 78 °F

High & Low Weather Summary for the Past Weeks

 TemperatureHumidityPressure
High84 °F (Jul 24, 12:00 PM)100% (Jul 10, 10:30 PM)29.95 "Hg (Jul 10, 10:30 PM)
Low72 °F (Jul 12, 3:30 PM)70% (Jul 19, 10:00 AM)29.80 "Hg (Jul 14, 2:00 PM)
Average77 °F89%29.89 "Hg
* Reported Jul 9 9:00 PM — Jul 24 9:00 PM, The Settlement, Weather by CustomWeather, © 2016

Note: Actual official high and low records may vary slightly from our data, if they occured in-between our weather recording intervals... More about our weather records

Advertising

The Settlement Weather History for the Previous 24 Hours

Scroll right to see more
 ConditionsComfort  
Time TempWeatherWind HumidityBarometerVisibility
9:00 PM
Sun, Jul 24
75 °FClear.No wind94%29.92 "HgN/A
8:30 PM75 °FClear.No wind94%29.92 "HgN/A
5:30 PM81 °FSunny.No wind84%29.86 "HgN/A
5:00 PM81 °FSunny.5 mph79%29.86 "HgN/A
1:00 PM82 °FBroken clouds.9 mph79%29.86 "HgN/A
12:30 PM84 °FScattered clouds.8 mph70%29.89 "HgN/A
12:00 PM84 °FBroken clouds.8 mph74%29.89 "HgN/A
11:30 AM82 °FScattered clouds.8 mph74%29.89 "HgN/A
11:00 AM82 °FScattered clouds.8 mph74%29.92 "HgN/A
9:46 AM82 °FScattered clouds.8 mph79%29.92 "HgN/A
9:00 AM81 °FScattered clouds.9 mph84%29.95 "HgN/A
8:30 AM81 °FPartly sunny.7 mph89%29.95 "HgN/A
8:00 AM79 °FPartly sunny.7 mph89%29.95 "HgN/A
7:00 AM79 °FPartly sunny.6 mph89%29.89 "HgN/A
6:30 AM77 °FPartly sunny.5 mph94%29.89 "HgN/A
6:00 AM77 °FPassing clouds.5 mph89%29.89 "HgN/A
5:30 AM77 °FPartly cloudy.5 mph94%29.86 "HgN/A
5:00 AM77 °FPartly cloudy.5 mph94%29.86 "HgN/A
4:00 AM77 °FOvercast.5 mph94%29.86 "HgN/A
3:30 AM77 °FClear.7 mph94%29.86 "HgN/A
3:00 AM77 °FPassing clouds.6 mph94%29.86 "HgN/A
2:30 AM77 °FPassing clouds.6 mph94%29.86 "HgN/A
2:00 AM77 °FPartly cloudy.6 mph83%29.89 "HgN/A
1:30 AM77 °FOvercast.8 mph94%29.89 "HgN/A
1:00 AM79 °FPartly cloudy.7 mph94%29.89 "HgN/A
12:00 AM79 °FPartly cloudy.8 mph94%29.89 "HgN/A
11:30 PM
Sat, Jul 23
79 °FPartly cloudy.8 mph94%29.89 "HgN/A
11:00 PM79 °FPartly cloudy.7 mph94%29.92 "HgN/A
Weather by CustomWeather, © 2016

See weather overviewHow to use our weather pages